N960DH KF45-KPIE

Flight info

Callsign N960DH
Flight time 0h 44m
Altitude 28000
Route WELLY JAYMC BLFRG3
Aircraft TBM9/L-SDFGRWY/S

Departure

Time 2026-05-09 05:42
Airport North Palm Beach County General Aviation Airport (KF45)

Arrival

Time 2026-05-09 06:26
Airport St. Petersburg Clearwater International Airport (KPIE)
Time Latitude Longitude Altitude Speed Heading
2026-05-09 05:34 26.85181 -80.22081 30 ft 0 kts 85°
2026-05-09 05:38 26.85181 -80.22075 30 ft 6 kts 85°
2026-05-09 05:38 26.85134 -80.22058 32 ft 12 kts 174°
2026-05-09 05:39 26.85080 -80.22090 31 ft 15 kts 268°
2026-05-09 05:39 26.85068 -80.22251 30 ft 26 kts 268°
2026-05-09 05:39 26.85038 -80.22337 30 ft 8 kts 235°
2026-05-09 05:39 26.85031 -80.22423 28 ft 13 kts 265°
2026-05-09 05:40 26.85018 -80.22537 25 ft 13 kts 268°
2026-05-09 05:40 26.85016 -80.22581 25 ft 0 kts 267°
2026-05-09 05:40 26.85015 -80.22600 25 ft 8 kts 265°
2026-05-09 05:41 26.85012 -80.22638 25 ft 0 kts 263°
2026-05-09 05:41 26.85012 -80.22639 25 ft 0 kts 264°
2026-05-09 05:41 26.84987 -80.22690 27 ft 10 kts 142°
2026-05-09 05:42 26.84856 -80.22550 28 ft 52 kts 133°
2026-05-09 05:42 26.84466 -80.22129 36 ft 104 kts 150°
2026-05-09 05:42 26.83808 -80.21588 231 ft 127 kts 163°
2026-05-09 05:42 26.82974 -80.21637 638 ft 132 kts 218°
2026-05-09 05:43 26.82219 -80.22229 1110 ft 133 kts 210°
2026-05-09 05:43 26.81442 -80.22798 1609 ft 134 kts 231°
2026-05-09 05:43 26.81221 -80.23829 2022 ft 146 kts 276°
2026-05-09 05:43 26.81622 -80.24885 2389 ft 152 kts 306°
2026-05-09 05:44 26.82212 -80.25877 2798 ft 153 kts 304°
2026-05-09 05:44 26.82754 -80.26876 3253 ft 152 kts 303°
2026-05-09 05:44 26.83299 -80.27891 3671 ft 152 kts 303°
2026-05-09 05:44 26.83839 -80.28908 4105 ft 152 kts 303°
2026-05-09 05:45 26.84373 -80.29921 4567 ft 150 kts 304°
2026-05-09 05:45 26.84904 -80.30926 5021 ft 150 kts 304°
2026-05-09 05:45 26.85437 -80.31938 5470 ft 152 kts 304°
2026-05-09 05:45 26.85975 -80.32956 5969 ft 153 kts 304°
2026-05-09 05:46 26.86507 -80.33967 6488 ft 150 kts 304°
2026-05-09 05:46 26.87028 -80.34964 6987 ft 148 kts 303°
2026-05-09 05:46 26.87554 -80.35963 7460 ft 149 kts 302°
2026-05-09 05:46 26.88084 -80.36965 7924 ft 150 kts 302°
2026-05-09 05:47 26.88619 -80.37979 8387 ft 151 kts 301°
2026-05-09 05:47 26.89155 -80.38997 8856 ft 152 kts 301°
2026-05-09 05:47 26.89696 -80.40022 9336 ft 153 kts 300°
2026-05-09 05:47 26.90239 -80.41052 9823 ft 154 kts 299°
2026-05-09 05:48 26.90783 -80.42085 10265 ft 154 kts 298°
2026-05-09 05:48 26.91324 -80.43109 10689 ft 155 kts 299°
2026-05-09 05:48 26.91903 -80.44133 11129 ft 156 kts 299°
2026-05-09 05:48 26.92410 -80.45205 11537 ft 159 kts 294°
2026-05-09 05:49 26.92951 -80.46397 11652 ft 184 kts 296°
2026-05-09 05:49 26.93587 -80.47749 11735 ft 205 kts 297°
2026-05-09 05:49 26.94246 -80.49173 12116 ft 205 kts 296°
2026-05-09 05:49 26.94889 -80.50606 12516 ft 206 kts 295°
2026-05-09 05:50 26.95525 -80.52025 12901 ft 207 kts 296°
2026-05-09 05:50 26.96176 -80.53470 13286 ft 209 kts 296°
2026-05-09 05:50 26.96833 -80.54923 13681 ft 209 kts 295°
2026-05-09 05:50 26.97492 -80.56382 14038 ft 210 kts 295°
2026-05-09 05:51 26.98152 -80.57841 14395 ft 210 kts 295°
2026-05-09 05:51 26.98812 -80.59304 14758 ft 210 kts 295°
2026-05-09 05:51 26.99471 -80.60766 15120 ft 210 kts 295°
2026-05-09 05:51 27.00131 -80.62229 15474 ft 210 kts 295°
2026-05-09 05:52 27.00783 -80.63674 15833 ft 210 kts 295°
2026-05-09 05:52 27.01442 -80.65138 16192 ft 210 kts 295°
2026-05-09 05:52 27.02102 -80.66604 16543 ft 211 kts 295°
2026-05-09 05:52 27.02764 -80.68072 16901 ft 211 kts 295°
2026-05-09 05:53 27.03426 -80.69543 17259 ft 211 kts 295°
2026-05-09 05:53 27.04088 -80.71013 17612 ft 211 kts 295°
2026-05-09 05:53 27.04751 -80.72487 17970 ft 212 kts 295°
2026-05-09 05:53 27.05415 -80.73964 18320 ft 212 kts 295°
2026-05-09 05:54 27.06070 -80.75421 18625 ft 212 kts 295°
2026-05-09 05:54 27.06733 -80.76896 18936 ft 212 kts 295°
2026-05-09 05:54 27.07397 -80.78373 19243 ft 212 kts 295°
2026-05-09 05:54 27.08059 -80.79848 19551 ft 212 kts 295°
2026-05-09 05:55 27.08722 -80.81323 19855 ft 212 kts 295°
2026-05-09 05:55 27.09399 -80.82821 19977 ft 221 kts 295°
2026-05-09 05:55 27.10107 -80.84375 19974 ft 232 kts 296°
2026-05-09 05:55 27.10854 -80.86016 19974 ft 240 kts 296°
2026-05-09 05:56 27.11619 -80.87708 19974 ft 246 kts 296°
2026-05-09 05:56 27.12396 -80.89435 19972 ft 250 kts 296°
2026-05-09 05:56 27.13181 -80.91189 19969 ft 253 kts 296°
2026-05-09 05:56 27.13976 -80.92959 19968 ft 255 kts 296°
2026-05-09 05:57 27.14773 -80.94741 19969 ft 256 kts 296°
2026-05-09 05:57 27.15572 -80.96530 19965 ft 257 kts 296°
2026-05-09 05:57 27.16365 -80.98302 19967 ft 258 kts 296°
2026-05-09 05:57 27.17171 -81.00102 19966 ft 258 kts 296°
2026-05-09 05:58 27.17979 -81.01910 19966 ft 260 kts 296°
2026-05-09 05:58 27.18791 -81.03725 19965 ft 260 kts 296°
2026-05-09 05:58 27.19606 -81.05544 19966 ft 261 kts 296°
2026-05-09 05:58 27.20423 -81.07367 19963 ft 262 kts 296°
2026-05-09 05:59 27.21240 -81.09193 19963 ft 262 kts 296°
2026-05-09 05:59 27.22057 -81.11021 19963 ft 262 kts 296°
2026-05-09 05:59 27.22875 -81.12850 19961 ft 262 kts 296°
2026-05-09 05:59 27.23693 -81.14680 19963 ft 262 kts 296°
2026-05-09 06:00 27.24501 -81.16487 19964 ft 262 kts 296°
2026-05-09 06:00 27.25319 -81.18318 19967 ft 262 kts 296°
2026-05-09 06:00 27.26137 -81.20152 19966 ft 262 kts 296°
2026-05-09 06:00 27.26954 -81.21983 19965 ft 262 kts 296°
2026-05-09 06:01 27.27770 -81.23814 19956 ft 262 kts 296°
2026-05-09 06:01 27.28586 -81.25645 19955 ft 262 kts 296°
2026-05-09 06:01 27.29403 -81.27479 19955 ft 262 kts 296°
2026-05-09 06:01 27.30222 -81.29315 19953 ft 263 kts 296°
2026-05-09 06:02 27.31009 -81.31132 19991 ft 260 kts 293°
2026-05-09 06:02 27.31771 -81.32985 19975 ft 263 kts 296°
2026-05-09 06:02 27.32626 -81.34807 19958 ft 264 kts 297°
2026-05-09 06:02 27.33462 -81.36642 19955 ft 264 kts 296°
2026-05-09 06:03 27.34286 -81.38481 19958 ft 263 kts 296°
2026-05-09 06:03 27.35106 -81.40323 19958 ft 263 kts 296°
2026-05-09 06:03 27.35925 -81.42165 19959 ft 263 kts 296°
2026-05-09 06:03 27.36742 -81.44006 19959 ft 263 kts 296°
2026-05-09 06:04 27.37558 -81.45848 19964 ft 263 kts 296°
2026-05-09 06:04 27.38364 -81.47666 19961 ft 263 kts 296°
2026-05-09 06:04 27.39181 -81.49508 19961 ft 263 kts 296°
2026-05-09 06:04 27.39999 -81.51353 19963 ft 263 kts 296°
2026-05-09 06:05 27.40817 -81.53196 19963 ft 264 kts 296°
2026-05-09 06:05 27.41636 -81.55043 19965 ft 263 kts 296°
2026-05-09 06:05 27.42454 -81.56888 19968 ft 263 kts 296°
2026-05-09 06:05 27.43213 -81.58763 19983 ft 264 kts 287°
2026-05-09 06:06 27.43847 -81.60717 19990 ft 269 kts 289°
2026-05-09 06:06 27.44690 -81.62621 20003 ft 274 kts 295°
2026-05-09 06:06 27.45614 -81.64478 20003 ft 276 kts 294°
2026-05-09 06:06 27.46484 -81.66406 20000 ft 276 kts 291°
2026-05-09 06:07 27.47319 -81.68361 20004 ft 278 kts 291°
2026-05-09 06:07 27.48172 -81.70316 20001 ft 279 kts 292°
2026-05-09 06:07 27.49039 -81.72269 20004 ft 279 kts 292°
2026-05-09 06:07 27.49900 -81.74225 20006 ft 279 kts 292°
2026-05-09 06:08 27.50758 -81.76187 20008 ft 279 kts 292°
2026-05-09 06:08 27.51618 -81.78150 20008 ft 279 kts 292°
2026-05-09 06:08 27.52480 -81.80112 20009 ft 279 kts 292°
2026-05-09 06:08 27.53330 -81.82050 20010 ft 280 kts 292°
2026-05-09 06:09 27.54191 -81.84015 20008 ft 279 kts 292°
2026-05-09 06:09 27.55049 -81.85975 20007 ft 279 kts 292°
2026-05-09 06:09 27.55906 -81.87937 20011 ft 279 kts 292°
2026-05-09 06:09 27.56764 -81.89895 20011 ft 279 kts 292°
2026-05-09 06:10 27.57621 -81.91855 20010 ft 279 kts 292°
2026-05-09 06:10 27.58477 -81.93813 20010 ft 278 kts 292°
2026-05-09 06:10 27.59320 -81.95746 20012 ft 278 kts 292°
2026-05-09 06:10 27.60173 -81.97704 20011 ft 278 kts 292°
2026-05-09 06:11 27.61031 -81.99676 19772 ft 283 kts 292°
2026-05-09 06:11 27.61908 -82.01674 19357 ft 286 kts 292°
2026-05-09 06:11 27.62788 -82.03688 18946 ft 287 kts 292°
2026-05-09 06:11 27.63667 -82.05709 18544 ft 287 kts 292°
2026-05-09 06:12 27.64547 -82.07733 18108 ft 288 kts 292°
2026-05-09 06:12 27.65418 -82.09731 17665 ft 287 kts 292°
2026-05-09 06:12 27.66298 -82.11750 17214 ft 287 kts 292°
2026-05-09 06:12 27.67175 -82.13770 16770 ft 286 kts 292°
2026-05-09 06:13 27.68051 -82.15783 16331 ft 286 kts 292°
2026-05-09 06:13 27.68926 -82.17796 15898 ft 285 kts 292°
2026-05-09 06:13 27.69798 -82.19805 15473 ft 285 kts 292°
2026-05-09 06:13 27.70670 -82.21812 15043 ft 285 kts 292°
2026-05-09 06:14 27.71535 -82.23807 14629 ft 284 kts 292°
2026-05-09 06:14 27.72403 -82.25808 14220 ft 284 kts 292°
2026-05-09 06:14 27.73258 -82.27782 13818 ft 283 kts 292°
2026-05-09 06:14 27.74124 -82.29778 13365 ft 283 kts 292°
2026-05-09 06:15 27.74988 -82.31770 12914 ft 282 kts 292°
2026-05-09 06:15 27.75847 -82.33756 12469 ft 281 kts 292°
2026-05-09 06:15 27.76703 -82.35734 12029 ft 280 kts 292°
2026-05-09 06:15 27.77555 -82.37705 11597 ft 279 kts 292°
2026-05-09 06:16 27.78402 -82.39665 11169 ft 277 kts 292°
2026-05-09 06:16 27.79246 -82.41619 10746 ft 276 kts 292°
2026-05-09 06:16 27.80086 -82.43564 10331 ft 275 kts 292°
2026-05-09 06:16 27.80912 -82.45475 9925 ft 274 kts 292°
2026-05-09 06:17 27.81745 -82.47408 9468 ft 273 kts 292°
2026-05-09 06:17 27.82576 -82.49336 9016 ft 273 kts 293°
2026-05-09 06:17 27.83409 -82.51266 8567 ft 273 kts 293°
2026-05-09 06:17 27.84239 -82.53193 8129 ft 273 kts 293°
2026-05-09 06:18 27.85069 -82.55122 7691 ft 273 kts 293°
2026-05-09 06:18 27.85899 -82.57050 7265 ft 273 kts 294°
2026-05-09 06:18 27.86717 -82.58951 6847 ft 273 kts 294°
2026-05-09 06:18 27.87545 -82.60878 6426 ft 273 kts 294°
2026-05-09 06:19 27.88374 -82.62804 5991 ft 272 kts 294°
2026-05-09 06:19 27.89201 -82.64730 5551 ft 272 kts 294°
2026-05-09 06:19 27.90027 -82.66653 5116 ft 272 kts 294°
2026-05-09 06:19 27.90852 -82.68575 4688 ft 272 kts 294°
2026-05-09 06:20 27.91675 -82.70495 4234 ft 271 kts 294°
2026-05-09 06:20 27.92491 -82.72402 3797 ft 268 kts 295°
2026-05-09 06:20 27.93291 -82.74261 3382 ft 265 kts 295°
2026-05-09 06:20 27.94089 -82.76124 2944 ft 261 kts 296°
2026-05-09 06:21 27.94873 -82.77964 2498 ft 255 kts 297°
2026-05-09 06:21 27.95591 -82.79699 2171 ft 230 kts 297°
2026-05-09 06:21 27.96623 -82.80884 2128 ft 210 kts 337°
2026-05-09 06:21 27.98106 -82.80960 1483 ft 217 kts 17°
2026-05-09 06:22 27.99295 -82.80065 1495 ft 202 kts 48°
2026-05-09 06:22 27.99909 -82.78679 1497 ft 197 kts 77°
2026-05-09 06:22 27.99857 -82.77167 1496 ft 197 kts 106°
2026-05-09 06:22 27.99162 -82.75852 1506 ft 197 kts 135°
2026-05-09 06:23 27.97996 -82.75075 1510 ft 196 kts 162°
2026-05-09 06:23 27.96695 -82.74625 1510 ft 196 kts 163°
2026-05-09 06:23 27.95397 -82.74167 1508 ft 195 kts 163°
2026-05-09 06:23 27.94137 -82.73724 1505 ft 184 kts 163°
2026-05-09 06:24 27.92941 -82.73303 1489 ft 177 kts 163°
2026-05-09 06:24 27.91807 -82.72905 1453 ft 168 kts 162°
2026-05-09 06:24 27.90745 -82.72436 1107 ft 163 kts 155°
2026-05-09 06:24 27.89729 -82.71938 913 ft 152 kts 158°
2026-05-09 06:25 27.88861 -82.71389 813 ft 133 kts 137°
2026-05-09 06:25 27.88381 -82.70581 632 ft 120 kts 100°
2026-05-09 06:25 27.88355 -82.69680 545 ft 111 kts 88°
2026-05-09 06:25 27.88497 -82.68893 347 ft 89 kts 42°
2026-05-09 06:26 27.88994 -82.68546 165 ft 87 kts 12°
2026-05-09 06:26 27.89627 -82.68599 62 ft 95 kts 353°
2026-05-09 06:26 27.90257 -82.68708 19 ft 84 kts 354°
2026-05-09 06:26 27.90684 -82.68782 20 ft 36 kts 350°
2026-05-09 06:27 27.90835 -82.68806 17 ft 31 kts 351°